{"data":{"norad_id":58243,"epoch":"2026-05-25T04:33:59.688288Z","epoch_age_seconds":55031,"freshness":"FRESH","line1":"1 58243U 23171P   26145.19027417  .00000723  00000+0  35797-4 0  9991","line2":"2 58243  42.9996 213.2598 0001296 309.2342  50.8394 15.27587578141330","mean_motion":15.27587578,"eccentricity":0.0001296,"inclination_deg":42.9996,"raan_deg":213.2598,"arg_perigee_deg":309.2342,"mean_anomaly_deg":50.8394,"bstar":3.5797e-5,"rev_number":14133,"period_min":94.266281078649,"perigee_km":482.13719809802,"apogee_km":483.91561165256,"semimajor_km":6861.1634048753,"source":"CELESTRAK","updated_at":"2026-05-25T13:38:18.581893Z"}}